Tracking 31027 objects as of 19-Jul-2025
HD Live streaming from Space Station
objects crossing your sky now

STARLINK-4502

Track STARLINK-4502 now!
10-day predictions
STARLINK-4502 is classified as:


NORAD ID: 53557
Int'l Code: 2022-101AG
Perigee: 545.9 km
Apogee: 547.9 km
Inclination: 53.2 °
Period: 95.4 minutes
Semi major axis: 6917 km
RCS: Unknown
Launch date: August 19, 2022
Source: United States (US)
Launch site: AIR FORCE EASTERN TEST RANGE (AFETR)
Your satellite tracking list
COSMOS 2502
Track 1 satellite(s)




NASA's NSSDC Master Catalog

Two Line Element Set (TLE):
1 53557U 22101AG  25199.57029613  .00001140  00000-0  89717-4 0  9992
2 53557  53.2178  35.1235 0001425  93.8563 266.2592 15.08832077161616
Source of the keplerian elements: AFSPC